Location: Remedello Sotto
(45.2500°N, 10.3667°E)
Time: 11:05:37
(UTC+00:00)

Okean O Rocket - Visible Passes

Search period start: 28 September 2023 00:00
Search period end: 08 October 2023 00:00
Orbit: 621 x 640 km, 98.1° (Epoch: 28 September)

Date Brightness Start Highest point End Pass type
(mag) Time Alt. Az. Time Alt. Az. Time Alt. Az.
28 Sep 2.8 17:54:28 11° ESE 17:57:49 24° ENE 18:01:21 10° NNE visible
28 Sep 2.9 19:31:52 24° SSW 19:33:54 38° W 19:38:04 10° NNW visible
29 Sep 2.2 18:15:29 18° SE 18:18:15 36° ENE 18:22:19 10° N visible
29 Sep 3.7 19:52:54 19° SW 19:54:38 24° W 19:58:15 10° NW visible
30 Sep 1.7 18:36:30 27° SE 18:38:44 57° ENE 18:43:07 10° N visible
30 Sep 4.2 20:13:55 13° WSW 20:15:25 15° W 20:18:01 10° NW visible
01 Oct 1.5 18:57:31 37° SSE 18:59:17 88° WSW 19:03:46 10° NNW visible
02 Oct 3.2 17:41:08 10° ESE 17:44:01 18° ENE 17:46:59 10° NNE visible
02 Oct 2.2 19:18:32 38° SSW 19:19:54 54° W 19:24:16 10° NNW visible
03 Oct 2.6 18:02:09 18° ESE 18:04:24 27° ENE 18:08:07 10° N visible
03 Oct 3.1 19:39:33 30° SW 19:40:34 33° W 19:44:36 10° NNW visible
04 Oct 2.0 18:23:10 29° ESE 18:24:50 41° ENE 18:29:01 10° N visible
04 Oct 3.8 20:00:34 20° WSW 20:01:17 21° W 20:04:41 10° NW visible
05 Oct 1.5 18:44:10 46° SE 18:45:19 67° ENE 18:49:46 10° N visible
05 Oct 4.4 20:21:34 13° W 20:22:05 13° W 20:24:13 10° WNW visible
06 Oct 3.5 17:28:05 10° E 17:30:12 13° ENE 17:32:19 10° NNE visible
06 Oct 1.7 19:05:11 61° SSW 19:05:53 77° WSW 19:10:21 10° NNW visible
07 Oct 3.0 17:48:47 16° E 17:50:31 20° ENE 17:53:46 10° NNE visible
07 Oct 2.5 19:26:11 46° WSW 19:26:30 46° W 19:30:48 10° NNW visible
